www.pogodaiklimat.ru

Погода и климат >> Архив погоды >> Россия >> Астраханская область >> Верхний Баскунчак


АРХИВ ПОГОДЫ в Верхнем Баскунчаке

Время (UTC), дата Ветер
(напр.,м/с)
 
Видим.   Явления Облачность Т
(С)
Тd
(С)
f
(%)
Тe
(С)
Тes
(С)
Комфортность P
(гПа)
Po
(гПа)
Тmin
(С)
Tmax
(С)
R
(мм)
R24
(мм)
S
(см)
09 18.06 З 1 20 км 6/4 1000 м
[Cu med, cong Ci fib]
+32.1 +6.3 20 +30 +42 жарко 1010.8 1006.8
12 18.06 СЗ 3 20 км 4/4 1000 м
[Cu hum]
+33.3 +5.5 18 +31 +37 жарко 1009.8 1005.8
15 18.06 З 4 20 км ясно +32.1 +4.8 18 +30 +31 жарко 1009.4 1005.4 +34.5
18 18.06 СЗ 2 20 км ясно +26.0 +6.8 29 +26 +26 жарко 1010.6 1006.5
21 18.06 С 1 20 км 4/4 600 м
[Sc]
+22.8 +5.6 33 +23 +23 комфорт 1010.8 1006.7
00 19.06 СВ 2 20 км 4/4 600 м
[Sc]
+20.6 +6.2 39 +22 +22 комфорт 1010.8 1006.6
03 19.06 СВ 2 20 км 4/0
[Ac trans Ci fib]
+24.8 +6.5 31 +25 +27 комфорт 1010.6 1006.5 +19.5
06 19.06 СВ 2 20 км ясно +31.0 +5.4 20 +29 +41 жарко 1010.5 1006.5
09 19.06 С 2 20 км 6/6 1000 м
[Cu hum]
+33.5 +4.6 16 +31 +38 жарко 1010.1 1006.1
12 19.06 С 2 20 км 8/8 1000 м
[Cu hum]
+34.0 +4.4 16 +31 +34 жарко 1008.9 1004.9
15 19.06 С 1 20 км 8/4 1000 м
[Cu hum Ci sp]
+33.5 +2.9 15 +31 +32 жарко 1008.8 1004.8 +34.9
18 19.06 С 2 20 км 8/8 600 м
[Sc]
+27.4 +10.6 35 +28 +28 жарко 1010.3 1006.2
21 19.06 С 1 20 км 8/8 600 м
[Sc]
+24.7 +11.8 44 +26 +26 жарко 1010.8 1006.7
00 20.06 С 1 20 км 8/6 600 м
[Sc Ac trans]
+22.5 +12.4 53 +25 +25 комфорт 1010.8 1006.7
03 20.06 С 1 20 км 3/0
[Ac trans]
+24.6 +11.4 44 +26 +28 жарко 1011.5 1007.4 +22.1
06 20.06 С 5
{10}
20 км ясно +30.4 +9.8 28 +30 +37 жарко 1011.8 1007.8
09 20.06 СВ 4
{10}
20 км 6/6 1000 м
[Cu hum]
+32.5 +6.8 20 +31 +36 жарко 1011.8 1007.8
12 20.06 СВ 2 20 км 8/8 1000 м
[Cu med, cong]
+33.0 +5.0 17 +31 +33 жарко 1011.3 1007.3
15 20.06 С 3 20 км 3/3 600 м
[Sc]
+32.3 +4.8 18 +30 +31 жарко 1011.3 1007.3 +34.1
18 20.06 С 2 20 км ясно +27.1 +5.3 25 +26 +26 жарко 1012.9 1008.8
21 20.06 СВ 3 20 км ясно +24.5 +6.2 31 +24 +24 комфорт 1013.6 1009.5
00 21.06 СВ 3 20 км ясно +21.7 +6.6 38 +22 +22 комфорт 1014.2 1010.0
03 21.06 СВ 2 20 км ясно +24.0 +7.7 35 +24 +27 комфорт 1015.5 1011.4 +20.4
06 21.06 СВ 4 20 км ясно +31.0 +7.6 23 +30 +38 жарко 1015.8 1011.7
09 21.06 СВ 3
{10}
20 км 6/6 1000 м
[Cu hum]
+33.7 +4.4 16 +31 +37 жарко 1014.9 1010.9
12 21.06 СВ 5-10
{10}
20 км 6/6 1000 м
[Cu hum]
+34.1 +4.2 15 +31 +34 жарко 1014.3 1010.4
15 21.06 СВ 4
{11}
20 км 4/4 1000 м
[Cu hum]
+33.2 +3.5 15 +30 +31 жарко 1014.2 1010.2 +34.9
18 21.06 С 3 20 км ясно +28.4 +3.5 20 +27 +27 жарко 1015.2 1011.2
21 21.06 СВ 4 20 км ясно +25.6 +4.5 26 +25 +25 комфорт 1015.7 1011.6
00 22.06 СВ 2 20 км ясно +22.9 +5.6 33 +23 +23 комфорт 1016.4 1012.2
03 22.06 СВ 3 20 км ясно +26.1 +6.6 29 +26 +28 жарко 1017.2 1013.1 +22.1
06 22.06 СВ 5
{10}
20 км ясно +32.5 +4.9 18 +30 +37 жарко 1017.5 1013.5
09 22.06 В 4
{10}
20 км ясно +34.6 +3.7 14 +32 +44 жарко 1016.8 1012.8
12 22.06 СВ 4 20 км ясно +35.8 +3.1 13 +33 +40 жарко 1015.7 1011.7
15 22.06 С 4 20 км ясно +34.2 +2.2 13 +31 +32 жарко 1015.2 1011.2 +36.0
18 22.06 С 1 20 км ясно +29.1 +1.8 17 +27 +27 жарко 1016.0 1011.9
21 22.06 СВ 4 20 км ясно +26.9 +2.6 21 +25 +25 комфорт 1016.0 1011.9
00 23.06 СВ 4 20 км ясно +25.3 +3.7 25 +24 +24 комфорт 1016.7 1012.6
03 23.06 В 3 20 км ясно +26.7 +4.3 24 +26 +27 жарко 1017.4 1013.3 +23.9
06 23.06 СВ 5 20 км ясно +33.8 +2.9 14 +31 +37 жарко 1017.2 1013.2
09 23.06 СВ 3 20 км ясно +35.6 +2.5 13 +32 +48 жарко 1016.5 1012.5
12 23.06 В 3
{11}
20 км ясно +36.9 +1.1 11 +33 +43 жарко 1015.4 1011.5
15 23.06 СВ 3 20 км ясно +35.8 +1.4 11 +32 +34 жарко 1014.5 1010.5 +37.0
18 23.06 С 2 20 км ясно +29.9 +1.3 16 +27 +27 жарко 1015.1 1011.1
21 23.06 СВ 2 20 км ясно +26.1 +3.1 23 +25 +25 комфорт 1014.9 1010.9
00 24.06 В 3 20 км ясно +26.2 +4.0 24 +25 +25 комфорт 1015.1 1011.0
03 24.06 В 3 20 км ясно +26.7 +4.8 25 +26 +28 жарко 1015.3 1011.2 +24.9
06 24.06 В 4 20 км 3/0
[Ci fib]
+35.4 +3.6 14 +32 +40 жарко 1014.9 1010.9
09 24.06 В 3 20 км 6/0
[Ci fib]
+38.1 +2.4 11 +35 +48 очень
жарко
1013.7 1009.8
12 24.06 В 2 20 км 9/6 1000 м
[Cu med, cong Ci fib]
+39.3 +2.5 10 +36 +40 очень
жарко
1012.2 1008.3
15 24.06 СВ 2 20 км 8/6 600 м
[Sc Ci fib]
+37.2 +2.0 11 +34 +34 очень
жарко
1011.3 1007.4 +40.2
18 24.06 СЗ 1 20 км 6/6 600 м
[Sc]
+31.7 +5.1 19 +30 +30 жарко 1012.4 1008.4
21 24.06 ЮЗ 1 20 км ясно +27.9 +5.5 24 +27 +27 жарко 1011.9 1007.9
00 25.06 Ю 1 20 км ясно +27.8 +8.2 29 +28 +28 жарко 1011.6 1007.5
03 25.06 В 2 20 км 8/8 600 м
[Sc]
+27.6 +9.4 32 +28 +28 жарко 1012.4 1008.3 +26.1
06 25.06 В 2 20 км 8/8 600 м
[Sc]
+33.6 +9.7 23 +33 +35 жарко 1012.5 1008.5

 

Местоположение метеостанции Верхний Баскунчак (Астраханская область, Россия): широта 48.22 долгота 46.73 высота над уровнем моря 35 м.

В архиве по умолчанию представлена погода в Верхнем Баскунчаке за последнюю неделю. Архивные данные за месяц целиком и за предыдущие месяцы, начиная с января 2011 года, Вы можете получить, выбрав интересующий диапазон дат из раскрывающегося списка и нажав кнопку "Ввод!".


*Определитесь, кто Вы:
робот инопланетянин человек

Внимание! Время в таблицах - всемирное. Для получения местного времени необходимо прибавить поправку, которая равна 4 ч.

Смотрите также архив погоды в соседних городах и на ближайших метеорологических станциях:

Погода в Черный Яр (Астраханская область, Россия) (48 км)
Погода в Урде (Западно-Казахстанская область, Казахстан) (80 км)
Погода в Харабали (Астраханская область, Россия) (99 км)
Погода в Эльтоне (Волгоградская область, Россия) (102 км)
Погода в Юсте (Калмыкия, Россия) (125 км)
Погода в Жанибеке (Западно-Казахстанская область, Казахстан) (131 км)
Погода в Жанаказане (Западно-Казахстанская область, Казахстан) (144 км)
Погода в Малых Дербетах (Калмыкия, Россия) (154 км)
Погода в Жанауштогане (Атырауская область, Казахстан) (158 км)
Погода в Досанге (Астраханская область, Россия) (170 км)

Пояснения к столбцам:

Ветер - указаны скорость ветра в м/с - средняя за 10 мин, порывы в срок и между сроками (в фигурных скобках) и направление, откуда дует ветер: С - северный, СВ - северо-восточный, В - восточный, ЮВ - юго-восточный, Ю - южный, ЮЗ - юго-западный, З - западный, СЗ - северо-западный.
Видимость - горизонтальная дальность видимости в метрах или километрах. При видимости от 1 до 10 км при отсутствии осадков обычно наблюдается дымка, при ухудшении видимости до 1 км и менее - туман. В сухую погоду видимость может ухудшаться дымом, пылью или мглою.
Явления - указаны атмосферные явления, наблюдавшиеся в срок или в последний час перед сроком; фигурными скобками обозначены явления, наблюдавшиеся между сроками (за 1-3 часа до срока); квадратными скобками обозначены град или гололедные отложения с указанием их диаметра в мм.
Облачность - указаны через наклонную черту общая и нижняя облачность в баллах и высота нижней границы облаков в метрах; квадратными скобками обозначены формы облаков: Ci - перистые, Cs - перисто-слоистые, Cc - перисто-кучевые, Ac - высококучевые, As - высокослоистые, Sc - слоисто-кучевые, Ns - слоисто-дождевые, Cu - кучевые, Cb - кучево-дождевые. Подробнее классификацию облаков см. в Атласе облаков (PDF).
T - Температура воздуха - температура, измеренная на высоте 2 м над землей.
Td - Температура точки росы - температура, при понижении до которой содержащийся в воздухе водяной пар достигнет насыщения.
f - Относительная влажность воздуха - влажноcть воздуха, измеренная на высоте 2 м над землей.
Te - Эффективная температура - температура, которую ощущает одетый по сезону человек в тени. Характеристика душности погоды. При расчете учитывается влияние влажности воздуха и скорости ветра на теплоощущения человека.
Tes - Эффективная температура на солнце - температура, которую ощущает человек, с поправкой на солнечный нагрев. Характеристика знойности погоды. Зависит от высоты солнца над горизонтом, облачности и скорости ветра. Ночью, в пасмурную погоду, а также при ветре 12 м/с и более поправка равна нулю.
P - Атмосферное давление - приведенное к уровню моря атмосферное давление.
Po - Атмосферное давление - измеренное на уровне метеостанции атмосферное давление.
Tmin - Минимальная температура - минимум температуры воздуха на высоте 2 м над землей.
Tmax - Максимальная температура - максимум температуры воздуха на высоте 2 м над землей.
R - Количество осадков - Количество выпавших осадков за период времени, мм. При наведении курсора мыши на число - период времени, за который выпало указанное количество осадков.
R24 - Количество осадков - Количество выпавших осадков за 24 часа, мм.
S - Снежный покров - Высота снежного покрова, см. При наведении курсора мыши на число - состояние снежного покрова и степень покрытия местности в баллах.